TimePST,TemperatureF,Dew PointF,Humidity,Sea Level PressureIn,VisibilityMPH,Wind Direction,Wind SpeedMPH,Gust SpeedMPH,PrecipitationIn,Events,Conditions,WindDirDegrees,DateUTC
12:15 AM,32.0,24.8,75,30.47,10.0,South,3.5,-,N/A,,Clear,190,2013-02-15 08:15:00
12:35 AM,32.0,24.8,75,30.47,10.0,ESE,4.6,-,N/A,,Clear,110,2013-02-15 08:35:00
12:55 AM,28.4,23.0,80,30.47,10.0,Calm,Calm,-,N/A,,Clear,0,2013-02-15 08:55:00
1:15 AM,30.2,24.8,80,30.48,10.0,South,5.8,-,N/A,,Clear,190,2013-02-15 09:15:00
1:35 AM,30.2,24.8,80,30.47,10.0,South,4.6,-,N/A,,Clear,190,2013-02-15 09:35:00
1:55 AM,28.4,24.8,86,30.47,10.0,South,6.9,-,N/A,,Clear,190,2013-02-15 09:55:00
2:15 AM,30.2,24.8,80,30.47,10.0,SW,3.5,-,N/A,,Clear,220,2013-02-15 10:15:00
2:35 AM,28.4,23.0,80,30.47,10.0,Calm,Calm,-,N/A,,Clear,0,2013-02-15 10:35:00
2:55 AM,28.4,23.0,80,30.47,10.0,Calm,Calm,-,N/A,,Clear,0,2013-02-15 10:55:00
3:15 AM,28.4,23.0,80,30.46,10.0,South,3.5,-,N/A,,Clear,180,2013-02-15 11:15:00
3:35 AM,28.4,23.0,80,30.46,10.0,South,5.8,-,N/A,,Clear,190,2013-02-15 11:35:00
3:55 AM,26.6,23.0,86,30.46,10.0,South,4.6,-,N/A,,Clear,180,2013-02-15 11:55:00
4:15 AM,28.4,23.0,80,30.45,10.0,South,4.6,-,N/A,,Clear,170,2013-02-15 12:15:00
4:35 AM,26.6,21.2,80,30.44,10.0,Calm,Calm,-,N/A,,Clear,0,2013-02-15 12:35:00
4:55 AM,26.6,23.0,86,30.44,10.0,South,4.6,-,N/A,,Clear,180,2013-02-15 12:55:00
5:15 AM,26.6,21.2,80,30.43,10.0,SSE,3.5,-,N/A,,Clear,150,2013-02-15 13:15:00
5:35 AM,24.8,19.4,80,30.43,10.0,SE,5.8,-,N/A,,Clear,140,2013-02-15 13:35:00
5:55 AM,26.6,21.2,80,30.43,10.0,SSE,5.8,-,N/A,,Clear,160,2013-02-15 13:55:00
6:15 AM,24.8,19.4,80,30.43,10.0,South,4.6,-,N/A,,Clear,170,2013-02-15 14:15:00
6:35 AM,26.6,19.4,74,30.42,10.0,SSE,4.6,-,N/A,,Clear,150,2013-02-15 14:35:00
6:55 AM,26.6,21.2,80,30.42,10.0,SSE,3.5,-,N/A,,Clear,160,2013-02-15 14:55:00
7:15 AM,26.6,21.2,80,30.42,10.0,South,4.6,-,N/A,,Clear,170,2013-02-15 15:15:00
7:35 AM,26.6,21.2,80,30.42,10.0,SSE,3.5,-,N/A,,Clear,160,2013-02-15 15:35:00
7:55 AM,28.4,23.0,80,30.43,10.0,South,5.8,-,N/A,,Clear,180,2013-02-15 15:55:00
8:15 AM,32.0,24.8,75,30.43,10.0,South,4.6,-,N/A,,Clear,190,2013-02-15 16:15:00
8:35 AM,33.8,26.6,75,30.43,10.0,SSE,3.5,-,N/A,,Clear,160,2013-02-15 16:35:00
8:55 AM,35.6,26.6,70,30.43,10.0,Calm,Calm,-,N/A,,Clear,0,2013-02-15 16:55:00
9:15 AM,37.4,26.6,65,30.43,10.0,Calm,Calm,-,N/A,,Clear,0,2013-02-15 17:15:00
9:55 AM,39.2,26.6,61,30.42,10.0,Calm,Calm,-,N/A,,Clear,0,2013-02-15 17:55:00
10:15 AM,41.0,26.6,57,30.41,10.0,Calm,Calm,-,N/A,,Clear,0,2013-02-15 18:15:00
10:35 AM,44.6,26.6,49,30.41,10.0,South,3.5,-,N/A,,Clear,170,2013-02-15 18:35:00
10:55 AM,46.4,26.6,46,30.40,10.0,Calm,Calm,-,N/A,,Clear,0,2013-02-15 18:55:00
11:15 AM,48.2,26.6,43,30.40,10.0,Calm,Calm,-,N/A,,Clear,0,2013-02-15 19:15:00
11:35 AM,48.2,24.8,40,30.39,10.0,SE,3.5,-,N/A,,Clear,140,2013-02-15 19:35:00
11:55 AM,50.0,24.8,37,30.37,10.0,NNE,4.6,-,N/A,,Clear,20,2013-02-15 19:55:00
12:15 PM,51.8,23.0,33,30.36,10.0,SSE,5.8,-,N/A,,Clear,150,2013-02-15 20:15:00
12:35 PM,53.6,23.0,30,30.35,10.0,Calm,Calm,-,N/A,,Clear,0,2013-02-15 20:35:00
12:55 PM,55.4,21.2,26,30.34,10.0,East,3.5,-,N/A,,Clear,100,2013-02-15 20:55:00
1:15 PM,55.4,21.2,26,30.32,10.0,South,3.5,-,N/A,,Clear,180,2013-02-15 21:15:00
1:35 PM,55.4,21.2,26,30.31,10.0,Calm,Calm,-,N/A,,Clear,0,2013-02-15 21:35:00
1:55 PM,57.2,21.2,25,30.30,10.0,East,3.5,-,N/A,,Clear,100,2013-02-15 21:55:00
2:15 PM,57.2,19.4,23,30.29,10.0,Calm,Calm,-,N/A,,Clear,0,2013-02-15 22:15:00
2:35 PM,57.2,19.4,23,30.29,10.0,SSE,4.6,-,N/A,,Clear,150,2013-02-15 22:35:00
2:55 PM,57.2,19.4,23,30.28,10.0,East,5.8,-,N/A,,Clear,90,2013-02-15 22:55:00
3:15 PM,57.2,21.2,25,30.28,10.0,NE,5.8,-,N/A,,Clear,50,2013-02-15 23:15:00
3:35 PM,57.2,21.2,25,30.27,10.0,NE,8.1,-,N/A,,Clear,40,2013-02-15 23:35:00
3:55 PM,57.2,19.4,23,30.27,10.0,NE,6.9,-,N/A,,Clear,50,2013-02-15 23:55:00
4:15 PM,57.2,19.4,23,30.26,10.0,East,4.6,-,N/A,,Clear,100,2013-02-16 00:15:00
4:35 PM,55.4,23.0,29,30.26,10.0,East,6.9,-,N/A,,Clear,80,2013-02-16 00:35:00
4:55 PM,55.4,23.0,29,30.25,10.0,East,4.6,-,N/A,,Clear,90,2013-02-16 00:55:00
5:15 PM,53.6,23.0,30,30.25,10.0,East,5.8,-,N/A,,Clear,90,2013-02-16 01:15:00
5:35 PM,51.8,23.0,33,30.25,10.0,Calm,Calm,-,N/A,,Clear,0,2013-02-16 01:35:00
5:55 PM,48.2,26.6,43,30.25,10.0,North,3.5,-,N/A,,Clear,350,2013-02-16 01:55:00
6:15 PM,46.4,28.4,50,30.26,10.0,Calm,Calm,-,N/A,,Clear,0,2013-02-16 02:15:00
6:35 PM,41.0,26.6,57,30.26,10.0,Calm,Calm,-,N/A,,Clear,0,2013-02-16 02:35:00
6:55 PM,41.0,28.4,61,30.26,10.0,NNW,3.5,-,N/A,,Clear,330,2013-02-16 02:55:00
7:15 PM,39.2,28.4,65,30.26,10.0,Calm,Calm,-,N/A,,Clear,0,2013-02-16 03:15:00
7:35 PM,39.2,28.4,65,30.26,10.0,Calm,Calm,-,N/A,,Clear,0,2013-02-16 03:35:00
7:55 PM,37.4,28.4,70,30.26,10.0,South,6.9,-,N/A,,Clear,190,2013-02-16 03:55:00
8:15 PM,37.4,28.4,70,30.26,10.0,Calm,Calm,-,N/A,,Clear,0,2013-02-16 04:15:00
8:35 PM,37.4,26.6,65,30.26,10.0,ENE,3.5,-,N/A,,Clear,60,2013-02-16 04:35:00
8:55 PM,35.6,26.6,70,30.26,10.0,Calm,Calm,-,N/A,,Clear,0,2013-02-16 04:55:00
9:15 PM,33.8,26.6,75,30.27,10.0,South,4.6,-,N/A,,Clear,190,2013-02-16 05:15:00
9:35 PM,33.8,24.8,70,30.27,10.0,South,4.6,-,N/A,,Clear,190,2013-02-16 05:35:00
9:55 PM,35.6,26.6,70,30.26,10.0,South,8.1,-,N/A,,Clear,190,2013-02-16 05:55:00
10:15 PM,35.6,26.6,70,30.26,10.0,South,3.5,-,N/A,,Clear,180,2013-02-16 06:15:00
10:35 PM,33.8,24.8,70,30.26,10.0,East,5.8,-,N/A,,Clear,100,2013-02-16 06:35:00
10:55 PM,32.0,24.8,75,30.25,10.0,ESE,5.8,-,N/A,,Clear,120,2013-02-16 06:55:00
11:15 PM,32.0,23.0,69,30.25,10.0,SSE,5.8,-,N/A,,Clear,150,2013-02-16 07:15:00
11:35 PM,37.4,24.8,60,30.25,10.0,South,6.9,-,N/A,,Clear,190,2013-02-16 07:35:00
11:55 PM,41.0,24.8,53,30.24,10.0,SSW,8.1,-,N/A,,Clear,200,2013-02-16 07:55:00